Wind_Speed
6 6 4 6 8 6 6 3 6 3 7 6 9 4 3 2 2 5 8 11 10 11 14 15 15 14 14 13 11 10 7 4 4 5 4 2 3 3 2 1 1 3 4 2 1 2 3 2 3
7 6 5 7 6 11 10 2 2 6 8 5 6 6 3 3 3 5 7 7 11 13 13 15 15 15 13 12 13 12 8 5 5 5 5 3 2 2 2 7 6 4 3 1 2 3 2 4 6
6 6 3 10 9 21 14 6 7 4 5 3 5 5 4 4 2 2 7 10 11 12 14 14 14 14 13 12 11 12 9 6 2 5 8 6 4 3 4 4 3 3 3 2 1 1 4 5 7
2 3 6 7 10 16 8 6 1 7 4 2 3 4 3 6 6 3 4 9 8 12 14 15 14 14 13 12 12 12 12 7 7 9 10 8 7 3 5 3 5 4 2 3 3 4 5 7 9
0 4 5 8 1 18 12 17 6 5 4 1 1 3 3 4 3 5 2 5 7 9 12 14 15 13 12 13 12 13 11 9 5 12 13 10 6 5 6 6 5 4 4 4 2 6 7 13 11
6 6 6 10 6 13 10 9 3 5 5 2 2 2 2 3 4 4 5 2 6 7 9 11 12 12 11 14 12 9 8 8 9 13 12 8 5 7 8 5 6 4 6 2 4 7 11 10 8
6 7 3 6 14 14 9 8 5 7 4 5 3 2 2 2 3 3 6 5 3 6 6 8 11 11 11 13 11 8 8 8 14 13 11 8 7 7 9 9 10 6 6 4 7 7 10 9 5
13 10 13 5 7 10 14 4 9 3 5 2 2 3 4 2 3 3 3 4 5 3 3 4 7 11 11 12 11 9 8 6 10 10 10 10 10 6 5 9 8 8 7 6 7 10 13 13 8
6 13 19 8 3 20 16 14 11 2 5 3 3 2 3 5 5 4 4 3 3 3 2 4 7 9 12 14 12 12 11 8 8 8 9 12 9 9 9 11 7 10 7 8 8 11 18 14 14
2 9 12 11 10 7 12 14 17 10 2 3 4 3 5 5 3 2 1 2 3 3 4 5 3 2 3 12 15 16 14 10 7 7 11 14 11 7 10 9 10 11 10 9 6 6 7 14 20
8 8 8 7 7 2 0 7 10 10 6 6 2 4 5 3 2 4 4 3 3 3 6 12 10 7 11 5 17 16 24 19 13 9 14 15 10 9 11 13 14 14 9 8 5 9 11 17 18
5 4 5 7 8 4 3 5 3 10 2 3 2 5 6 5 1 4 5 4 3 3 8 7 6 10 15 14 13 18 13 15 20 17 17 15 14 13 14 15 17 12 8 8 8 8 19 20 14
7 9 9 12 7 6 4 12 11 14 10 12 2 7 5 3 3 4 4 1 1 2 6 6 9 10 13 15 17 19 17 19 22 24 22 19 15 15 16 17 15 11 8 4 10 7 5 15 14
2 5 6 10 8 9 6 7 9 8 14 14 9 6 3 8 7 7 3 2 4 4 5 5 8 11 12 14 10 14 16 16 15 13 12 13 16 17 17 19 15 8 6 6 6 15 13 15 15
3 2 7 6 5 7 8 11 14 11 8 10 6 8 2 8 4 5 3 3 6 6 7 5 7 11 13 11 12 11 14 13 12 16 17 16 16 15 18 18 12 6 5 5 2 13 5 13 14
5 4 7 5 5 7 6 7 4 12 7 5 4 3 2 7 5 3 3 5 7 8 5 5 5 9 13 11 11 11 12 13 14 14 17 17 17 16 19 18 14 8 5 1 2 6 12 13 12
2 2 4 1 8 9 15 12 12 9 16 11 7 6 2 2 4 2 3 10 7 8 6 4 4 8 8 10 12 10 11 13 15 15 15 15 17 18 22 20 14 9 4 1 8 11 16 16 12
2 3 5 1 3 7 12 14 13 11 6 8 7 6 3 2 1 0 4 6 11 9 9 6 7 8 7 8 11 11 9 8 9 11 13 15 16 21 24 20 13 10 6 7 11 13 15 14 9
5 4 6 6 10 10 8 8 7 6 5 8 10 11 6 4 1 1 2 4 9 10 10 8 8 8 5 5 6 8 9 10 10 12 13 16 18 21 21 18 14 7 2 7 11 12 11 11 9
8 6 9 6 15 13 14 9 8 3 9 9 10 5 7 6 3 2 5 6 7 9 9 10 9 10 7 6 9 10 10 9 11 12 13 15 20 24 19 17 14 8 5 5 8 7 7 7 10
2 5 5 10 6 8 5 7 9 9 8 8 9 6 9 4 8 9 5 3 6 10 12 13 12 10 6 6 5 10 13 10 10 10 11 15 19 25 16 19 16 10 8 6 8 7 14 16 12
7 5 10 14 14 7 2 1 5 10 4 10 10 6 5 7 5 15 11 11 10 10 7 9 13 9 7 4 6 9 13 13 12 9 10 13 19 22 18 16 13 11 9 7 9 6 11 9 12
6 6 11 16 13 13 9 7 1 4 9 8 6 7 5 5 4 2 7 16 11 11 8 7 8 9 8 9 7 6 9 10 14 14 11 12 17 21 19 16 14 12 8 7 9 6 6 7 6
17 8 11 16 17 15 11 8 4 4 7 7 4 4 3 5 6 6 7 15 16 13 14 11 8 7 8 10 9 7 9 14 17 16 15 13 13 16 16 15 13 11 8 4 2 4 5 4 2
24 15 15 7 5 10 13 9 5 3 6 7 9 10 12 6 6 7 13 18 21 17 18 11 10 10 8 11 12 10 8 11 17 18 14 14 13 12 11 12 12 11 10 7 4 2 3 2 1
18 10 14 3 7 16 6 12 9 3 9 12 12 4 4 7 10 8 12 12 19 26 21 15 15 14 12 11 12 10 8 9 16 17 17 14 12 12 10 10 12 12 10 10 9 6 6 5 5
9 10 9 4 2 12 16 13 13 3 9 9 15 12 2 6 4 3 8 16 14 20 12 16 16 12 15 15 14 13 12 12 15 17 15 17 17 13 11 9 10 12 10 9 10 9 8 8 8
10 10 12 8 10 12 16 12 10 5 8 11 12 9 13 10 7 3 5 11 12 14 12 12 13 14 15 17 18 15 13 12 11 13 14 14 18 17 14 12 11 10 11 11 12 11 9 8 9
10 18 15 10 8 14 12 8 8 12 8 9 12 14 9 4 5 3 4 11 13 4 15 14 16 19 18 17 19 17 15 14 11 12 14 17 18 17 17 15 16 13 12 13 12 13 12 12 13
10 8 13 14 7 15 21 20 17 3 3 6 11 8 7 4 3 4 10 8 4 6 7 10 10 25 24 20 21 19 16 15 14 13 15 17 17 19 20 19 19 16 15 19 17 15 12 13 13
Wind_Direction
174 208 210 205 206 231 166 61 261 310 12 322 328 352 357 315 257 241 217 203 203 217 216 209 210 213 218 218 217 226 253 245 263 231 200 164 138 179 157 195 178 310 317 322 101 274 345 2 66
199 217 228 249 231 197 193 290 244 334 352 320 290 304 348 315 273 237 253 218 209 211 215 213 210 213 219 227 230 239 243 258 286 228 200 198 189 239 268 264 259 263 258 207 274 338 19 72 61
213 246 255 271 250 193 157 178 263 340 330 76 293 309 327 327 325 103 239 239 212 214 214 209 213 215 222 229 235 234 231 227 269 219 196 206 213 246 264 282 218 279 232 223 252 129 103 66 43
192 302 295 289 268 173 170 221 110 82 65 100 254 319 358 346 316 318 254 234 212 207 208 207 212 218 219 218 229 227 229 227 277 225 197 202 207 215 194 201 260 249 231 216 162 144 65 31 35
338 358 296 268 354 161 214 201 238 80 33 346 25 1 9 4 5 15 9 219 207 202 206 208 209 216 218 220 225 236 237 236 261 196 199 204 201 218 224 218 272 234 228 210 139 58 26 27 30
338 321 338 303 253 284 183 197 145 56 46 13 51 1 13 37 11 16 58 97 197 195 208 204 201 214 220 216 225 231 217 230 201 197 202 204 223 238 208 197 264 259 240 203 91 48 28 28 22
250 220 13 292 242 265 265 152 182 40 37 20 19 332 57 21 22 19 47 44 117 166 173 197 204 210 214 216 218 215 223 239 221 209 204 207 232 241 234 238 221 234 221 156 67 38 22 0 352
228 326 4 332 300 290 202 232 213 78 58 356 38 309 35 26 109 105 98 88 75 109 172 211 223 217 216 215 213 223 235 224 216 191 188 197 210 217 224 192 188 214 194 109 57 39 24 23 74
245 28 27 16 338 253 274 295 294 322 17 155 99 8 25 39 51 44 61 74 87 125 167 197 213 225 235 233 225 223 218 232 209 187 201 201 223 240 213 200 186 194 157 105 76 77 66 80 62
52 49 29 9 4 18 238 271 297 280 351 10 76 84 77 70 78 147 127 189 149 118 94 98 150 47 266 248 234 225 225 207 215 214 204 194 209 211 191 190 184 185 153 116 100 81 38 61 87
30 31 27 357 328 311 253 250 272 274 305 20 47 106 91 91 131 124 157 172 137 125 85 89 96 101 50 195 220 229 218 221 216 196 167 196 202 189 181 185 185 181 155 105 90 89 102 97 85
38 28 31 34 28 46 253 274 223 191 334 324 249 97 71 41 99 149 140 167 164 135 107 76 125 84 70 52 121 142 166 220 216 191 198 201 175 187 179 184 184 170 138 112 82 75 92 99 85
339 322 39 31 40 32 9 226 228 254 269 286 241 67 59 80 95 154 133 101 301 164 114 109 108 103 91 90 108 117 126 136 165 179 184 177 166 180 180 178 184 164 125 85 69 29 95 93 111
288 315 36 17 26 16 159 238 257 238 250 277 336 14 56 124 124 126 147 312 278 192 127 122 113 105 92 104 114 119 139 162 165 177 166 169 168 180 170 175 181 161 131 88 55 80 50 67 72
111 33 15 359 23 50 73 235 247 191 213 214 301 319 65 70 88 97 80 285 246 198 139 159 133 115 105 113 111 126 144 158 161 166 160 164 172 167 166 175 165 140 121 126 75 72 95 81 62
349 299 349 8 24 60 65 63 326 214 178 236 264 296 58 90 39 40 65 83 175 161 140 144 135 129 123 126 123 132 150 155 162 170 168 164 159 168 169 165 174 167 151 156 97 44 81 64 85
249 259 351 2 20 47 65 29 7 213 218 220 235 220 91 122 143 213 112 119 152 147 142 135 161 139 145 139 142 147 158 157 161 173 173 165 162 175 173 170 165 181 155 19 51 42 52 43 49
12 25 58 188 17 43 32 39 13 18 191 246 249 238 240 264 118 71 70 151 160 158 143 140 171 147 147 151 156 156 173 164 166 175 180 174 174 180 176 167 168 194 141 82 39 46 58 54 39
78 13 43 80 81 35 10 3 354 22 25 328 227 264 222 230 148 309 135 208 170 169 153 164 159 144 153 139 162 174 192 174 193 202 182 181 180 177 178 177 180 203 147 64 78 71 55 52 49
26 321 335 94 67 45 44 37 35 30 22 352 346 308 257 232 117 253 217 187 187 196 197 158 164 171 186 175 169 170 180 181 197 194 182 187 175 173 181 184 185 185 157 93 85 74 62 23 52
85 341 341 353 22 18 41 43 57 13 0 6 353 352 313 253 308 220 195 207 205 183 171 151 150 158 156 183 186 188 183 187 188 205 183 177 181 181 180 173 178 176 158 126 102 65 48 28 6
202 309 315 328 316 333 311 304 354 34 54 349 310 327 308 280 344 216 244 219 217 199 199 162 160 165 152 154 178 176 182 190 189 196 194 182 183 190 186 181 182 183 176 160 116 85 77 45 20
170 250 320 316 290 296 282 252 19 67 31 345 296 293 282 261 237 252 266 200 210 217 214 208 174 161 158 152 168 176 173 180 186 188 197 190 184 189 195 192 197 201 181 167 131 122 92 87 48
178 194 242 295 271 279 256 245 48 81 48 34 131 215 244 270 259 240 193 201 203 212 226 199 189 173 169 168 173 174 177 176 183 188 188 195 195 193 201 211 213 222 220 213 164 110 112 129 73
186 201 234 237 287 268 258 275 290 265 353 348 333 281 263 245 243 275 212 193 201 210 218 200 191 181 174 182 172 163 174 192 186 190 190 193 197 203 212 213 223 232 240 247 238 236 229 196 202
194 252 224 205 316 307 343 243 224 192 36 7 7 1 220 221 240 281 233 220 209 192 210 185 208 180 182 194 192 181 181 188 201 200 205 198 197 194 211 210 220 229 227 232 249 246 255 281 283
201 209 190 220 269 287 295 277 220 130 33 18 22 47 105 239 222 322 264 236 217 202 204 202 213 196 188 192 202 204 196 205 204 206 208 202 201 198 205 207 192 200 221 226 227 229 238 251 265
195 208 220 231 265 296 341 283 202 339 7 26 15 19 14 190 160 261 249 212 196 198 213 212 229 217 217 202 207 205 204 205 201 196 197 197 203 204 202 198 202 208 200 202 216 216 232 262 265
226 228 226 228 279 306 310 271 281 317 300 17 11 8 39 105 158 193 206 198 203 174 197 203 220 237 222 221 226 216 204 207 206 203 193 202 209 203 199 203 215 211 230 228 219 236 246 254 242
248 156 192 213 207 293 293 286 305 293 336 359 10 3 19 64 82 224 226 225 211 201 224 240 247 235 228 218 226 224 214 222 219 205 212 216 213 211 212 218 222 218 231 238 242 249 248 262 259
Height
5895 5895 5895 5895 5897 5895 5894 5892 5892 5893 5896 5893 5890 5889 5890 5889 5890 5892 5889 5890 5892 5892 5894 5895 5897 5899 5901 5903 5905 5905 5907 5908 5910 5911 5911 5911 5910 5910 5909 5909 5906 5905 5903 5900 5899 5897 5898 5901 5899
5895 5895 5896 5895 5895 5895 5894 5892 5894 5895 5893 5892 5889 5888 5887 5889 5889 5889 5887 5890 5891 5891 5892 5894 5897 5899 5902 5904 5905 5906 5907 5909 5910 5911 5911 5911 5911 5910 5910 5907 5906 5905 5904 5902 5901 5900 5901 5901 5899
5894 5895 5895 5893 5890 5891 5893 5894 5892 5894 5895 5892 5889 5888 5888 5888 5888 5888 5888 5887 5889 5890 5891 5893 5896 5898 5901 5904 5905 5906 5908 5909 5910 5910 5910 5910 5911 5911 5910 5908 5907 5906 5906 5903 5901 5902 5903 5902 5901
5895 5894 5893 5893 5893 5890 5892 5892 5893 5893 5892 5891 5889 5888 5888 5887 5887 5886 5886 5885 5886 5888 5890 5892 5895 5897 5899 5902 5903 5905 5907 5908 5910 5910 5910 5909 5910 5911 5909 5909 5908 5907 5905 5902 5902 5904 5906 5906 5904
5892 5893 5892 5890 5890 5889 5890 5893 5894 5893 5891 5890 5889 5889 5887 5887 5886 5885 5885 5885 5885 5887 5889 5892 5894 5897 5899 5902 5903 5905 5906 5909 5909 5910 5909 5910 5911 5910 5910 5909 5910 5906 5904 5903 5906 5908 5908 5908 5905
5893 5893 5889 5890 5892 5891 5888 5888 5891 5892 5890 5889 5889 5889 5888 5887 5885 5885 5885 5886 5886 5887 5889 5891 5894 5896 5898 5900 5903 5905 5907 5909 5909 5908 5910 5911 5912 5911 5910 5911 5909 5907 5907 5907 5909 5911 5910 5909 5904
5892 5891 5888 5888 5888 5888 5888 5885 5888 5890 5891 5890 5888 5888 5888 5886 5886 5885 5885 5886 5886 5887 5889 5890 5892 5894 5896 5899 5902 5904 5906 5907 5907 5908 5910 5912 5911 5910 5910 5912 5910 5909 5910 5911 5914 5913 5911 5906 5904
5893 5892 5888 5888 5887 5887 5885 5885 5888 5892 5892 5892 5889 5887 5888 5888 5888 5888 5887 5887 5887 5888 5888 5889 5891 5892 5894 5896 5900 5903 5905 5905 5906 5907 5908 5909 5909 5911 5912 5913 5910 5910 5912 5916 5916 5914 5911 5906 5902
5893 5890 5887 5887 5885 5885 5885 5884 5885 5890 5892 5894 5891 5887 5886 5888 5888 5888 5888 5887 5888 5888 5888 5888 5889 5891 5892 5894 5897 5900 5902 5903 5905 5905 5906 5907 5909 5911 5912 5913 5910 5910 5915 5917 5916 5913 5908 5904 5904
5889 5888 5888 5886 5886 5884 5883 5885 5884 5889 5893 5893 5890 5888 5887 5888 5889 5889 5890 5889 5889 5889 5888 5887 5888 5889 5891 5891 5893 5896 5899 5902 5903 5904 5904 5906 5909 5911 5913 5912 5911 5911 5915 5918 5915 5914 5914 5910 5906
5887 5888 5888 5887 5885 5883 5883 5884 5886 5885 5888 5888 5891 5889 5886 5888 5889 5889 5889 5889 5888 5889 5890 5889 5888 5888 5888 5885 5888 5890 5895 5900 5902 5902 5904 5906 5908 5910 5913 5911 5912 5913 5918 5921 5915 5917 5908 5911 5911
5889 5888 5887 5885 5884 5882 5883 5883 5883 5886 5888 5888 5890 5889 5888 5888 5889 5890 5890 5889 5889 5890 5891 5891 5890 5888 5886 5884 5885 5888 5894 5898 5899 5902 5903 5905 5908 5911 5913 5913 5914 5917 5919 5918 5920 5917 5912 5912 5914
5888 5887 5884 5885 5884 5883 5883 5884 5886 5886 5887 5888 5889 5888 5890 5890 5889 5890 5889 5889 5889 5889 5891 5891 5890 5890 5889 5889 5890 5890 5895 5897 5897 5900 5900 5903 5909 5912 5914 5915 5919 5921 5920 5918 5922 5915 5911 5916 5916
5888 5886 5885 5886 5886 5884 5884 5884 5883 5885 5886 5883 5888 5890 5890 5892 5890 5890 5890 5889 5888 5888 5891 5892 5891 5891 5892 5892 5894 5895 5897 5898 5900 5902 5904 5908 5911 5913 5916 5919 5921 5925 5922 5921 5916 5918 5918 5918 5914
5887 5889 5887 5888 5887 5884 5884 5885 5882 5885 5885 5886 5883 5885 5889 5890 5891 5891 5891 5888 5887 5888 5890 5893 5893 5893 5893 5894 5896 5898 5899 5899 5902 5905 5907 5909 5913 5917 5920 5922 5927 5926 5927 5923 5914 5918 5919 5914 5918
5883 5887 5888 5887 5887 5885 5884 5884 5883 5884 5884 5884 5885 5887 5886 5890 5889 5891 5892 5888 5888 5889 5890 5893 5894 5895 5895 5896 5898 5899 5900 5900 5904 5907 5910 5911 5914 5917 5921 5924 5927 5926 5931 5924 5923 5920 5920 5917 5917
5886 5886 5886 5888 5888 5888 5885 5885 5884 5884 5883 5884 5886 5885 5885 5889 5890 5892 5892 5890 5891 5892 5892 5892 5893 5895 5896 5897 5899 5901 5901 5904 5906 5909 5911 5914 5915 5917 5921 5924 5926 5929 5932 5926 5928 5926 5922 5919 5923
5886 5886 5884 5885 5886 5888 5886 5885 5885 5885 5883 5884 5885 5884 5885 5887 5889 5889 5890 5892 5893 5894 5894 5895 5895 5895 5897 5899 5901 5902 5904 5906 5908 5910 5914 5914 5916 5918 5920 5922 5927 5929 5932 5931 5927 5927 5924 5925 5925
5886 5887 5886 5884 5884 5886 5885 5886 5887 5887 5886 5888 5887 5885 5883 5886 5888 5886 5890 5891 5893 5893 5894 5895 5895 5896 5899 5899 5901 5903 5905 5907 5910 5914 5915 5914 5917 5919 5921 5925 5928 5927 5931 5934 5932 5931 5932 5930 5927
5884 5885 5884 5879 5884 5886 5884 5883 5884 5886 5887 5888 5885 5887 5886 5886 5888 5888 5891 5892 5893 5892 5892 5895 5897 5900 5901 5902 5903 5903 5904 5907 5911 5914 5917 5916 5918 5919 5921 5926 5929 5930 5930 5933 5932 5933 5933 5930 5929
5883 5884 5884 5883 5885 5887 5887 5887 5886 5885 5885 5885 5885 5886 5886 5888 5890 5887 5891 5892 5893 5894 5893 5893 5896 5899 5901 5901 5902 5903 5904 5907 5910 5913 5915 5916 5917 5919 5921 5925 5928 5930 5932 5934 5933 5932 5930 5930 5929
5881 5882 5881 5880 5883 5884 5886 5887 5885 5887 5886 5884 5883 5884 5885 5886 5887 5887 5889 5892 5894 5895 5895 5894 5895 5900 5899 5900 5901 5901 5901 5904 5907 5910 5913 5917 5919 5919 5921 5924 5925 5928 5931 5931 5931 5931 5929 5929 5931
5879 5881 5879 5879 5881 5881 5883 5883 5885 5886 5885 5881 5880 5880 5881 5882 5884 5884 5884 5887 5892 5893 5894 5895 5895 5896 5898 5899 5899 5899 5899 5900 5904 5907 5911 5916 5919 5920 5921 5924 5926 5926 5928 5929 5931 5930 5929 5931 5932
5878 5879 5880 5878 5876 5879 5878 5880 5883 5883 5882 5881 5880 5878 5879 5880 5881 5882 5884 5887 5888 5890 5892 5894 5896 5895 5896 5895 5896 5898 5898 5899 5902 5905 5909 5914 5918 5921 5924 5926 5929 5928 5928 5930 5930 5929 5928 5931 5932
5873 5875 5877 5880 5879 5877 5877 5878 5881 5882 5880 5879 5877 5875 5877 5878 5878 5881 5884 5883 5883 5888 5891 5891 5894 5895 5896 5896 5896 5897 5899 5900 5901 5903 5908 5913 5916 5918 5923 5926 5927 5928 5928 5928 5928 5928 5931 5931 5933
5872 5873 5875 5878 5878 5876 5875 5875 5877 5876 5878 5876 5873 5872 5873 5875 5879 5878 5880 5880 5880 5881 5886 5885 5891 5891 5894 5897 5898 5898 5899 5900 5902 5904 5907 5911 5914 5916 5919 5923 5925 5926 5926 5927 5927 5928 5928 5928 5929
5869 5871 5874 5874 5874 5874 5873 5872 5872 5876 5878 5875 5872 5872 5871 5872 5875 5874 5875 5879 5879 5879 5883 5885 5889 5889 5892 5894 5896 5897 5897 5901 5903 5904 5904 5908 5911 5913 5914 5916 5920 5922 5923 5924 5925 5927 5928 5928 5929
5867 5870 5871 5872 5871 5871 5869 5868 5872 5870 5872 5873 5872 5871 5869 5867 5871 5874 5873 5874 5879 5880 5882 5885 5886 5887 5890 5892 5894 5893 5895 5897 5900 5902 5903 5904 5907 5909 5911 5913 5915 5917 5918 5920 5924 5926 5926 5927 5927
5866 5867 5868 5870 5870 5869 5869 5868 5869 5869 5867 5871 5869 5867 5868 5868 5870 5873 5875 5875 5877 5876 5880 5882 5883 5884 5885 5888 5891 5891 5890 5893 5896 5900 5902 5902 5904 5905 5907 5910 5912 5913 5916 5919 5921 5923 5923 5925 5925
5862 5865 5866 5866 5867 5868 5865 5865 5864 5865 5866 5869 5868 5867 5868 5869 5869 5871 5875 5875 5874 5875 5878 5881 5880 5880 5880 5883 5885 5885 5887 5891 5892 5896 5899 5900 5902 5904 5905 5906 5907 5909 5911 5913 5916 5918 5919 5919 5921